TimeEDT,TemperatureF,Dew PointF,Humidity,Sea Level PressureIn,VisibilityMPH,Wind Direction,Wind SpeedMPH,Gust SpeedMPH,PrecipitationIn,Events,Conditions,WindDirDegrees,DateUTC
12:55 AM,68.2,62.6,82,29.86,10.0,Calm,Calm,-,N/A,,Mostly Cloudy,0,2012-10-17 04:55:00
1:38 AM,68.0,62.6,83,29.86,7.0,NE,3.5,-,N/A,,Clear,40,2012-10-17 05:38:00
1:47 AM,68.0,62.6,83,29.86,5.0,NNE,3.5,-,N/A,,Haze,30,2012-10-17 05:47:00
1:55 AM,68.0,62.4,82,29.86,8.0,NE,3.5,-,N/A,,Clear,40,2012-10-17 05:55:00
2:16 AM,68.0,62.6,83,29.86,5.0,Calm,Calm,-,N/A,,Haze,0,2012-10-17 06:16:00
2:19 AM,68.0,62.6,83,29.86,5.0,Calm,Calm,-,N/A,,Haze,0,2012-10-17 06:19:00
2:29 AM,68.0,62.6,83,29.86,6.0,Calm,Calm,-,N/A,,Haze,0,2012-10-17 06:29:00
2:55 AM,67.5,62.2,83,29.86,4.0,Calm,Calm,-,N/A,,Haze,0,2012-10-17 06:55:00
3:01 AM,68.0,62.6,83,29.86,4.0,Calm,Calm,-,N/A,,Haze,0,2012-10-17 07:01:00
3:45 AM,68.0,64.4,88,29.85,4.0,Calm,Calm,-,N/A,,Haze,0,2012-10-17 07:45:00
3:55 AM,67.8,63.7,87,29.85,3.0,Calm,Calm,-,N/A,,Haze,0,2012-10-17 07:55:00
4:05 AM,68.0,64.4,88,29.85,4.0,Calm,Calm,-,N/A,,Haze,0,2012-10-17 08:05:00
4:13 AM,68.0,64.4,88,29.85,6.0,Calm,Calm,-,N/A,,Haze,0,2012-10-17 08:13:00
4:55 AM,69.6,67.8,94,29.85,10.0,ESE,3.5,-,N/A,,Clear,120,2012-10-17 08:55:00
5:55 AM,70.2,68.0,93,29.84,10.0,ESE,4.6,-,N/A,,Clear,120,2012-10-17 09:55:00
6:55 AM,69.4,67.1,92,29.86,10.0,Calm,Calm,-,N/A,,Clear,0,2012-10-17 10:55:00
7:55 AM,68.9,67.1,94,29.88,10.0,NNE,3.5,-,N/A,,Clear,20,2012-10-17 11:55:00
8:38 AM,69.8,68.0,94,29.90,10.0,NNE,4.6,-,N/A,,Mostly Cloudy,20,2012-10-17 12:38:00
8:55 AM,70.2,68.2,93,29.91,10.0,North,4.6,-,N/A,,Overcast,10,2012-10-17 12:55:00
9:39 AM,71.6,68.0,88,29.91,10.0,NNE,5.8,-,N/A,,Mostly Cloudy,30,2012-10-17 13:39:00
9:42 AM,71.6,68.0,88,29.92,10.0,NNE,3.5,-,N/A,,Mostly Cloudy,30,2012-10-17 13:42:00
9:55 AM,73.0,68.5,86,29.92,10.0,NNE,3.5,-,N/A,,Mostly Cloudy,30,2012-10-17 13:55:00
10:55 AM,73.8,68.7,84,29.92,10.0,Calm,Calm,-,N/A,,Mostly Cloudy,0,2012-10-17 14:55:00
10:57 AM,73.4,68.0,83,29.92,10.0,Calm,Calm,-,N/A,,Scattered Clouds,0,2012-10-17 14:57:00
11:55 AM,75.4,69.6,82,29.91,10.0,Calm,Calm,-,N/A,,Partly Cloudy,0,2012-10-17 15:55:00
12:55 PM,78.1,71.8,81,29.90,10.0,Calm,Calm,-,N/A,,Partly Cloudy,0,2012-10-17 16:55:00
1:55 PM,79.5,71.6,77,29.88,10.0,West,4.6,-,N/A,,Scattered Clouds,280,2012-10-17 17:55:00
2:55 PM,78.6,71.4,78,29.86,10.0,Calm,Calm,-,N/A,,Partly Cloudy,0,2012-10-17 18:55:00
3:53 PM,78.8,69.8,74,29.85,10.0,Calm,Calm,-,N/A,,Light Drizzle,0,2012-10-17 19:53:00
3:55 PM,78.3,69.8,75,29.85,10.0,Calm,Calm,-,0.00,,Light Drizzle,0,2012-10-17 19:55:00
4:07 PM,78.8,69.8,74,29.85,10.0,Calm,Calm,-,N/A,,Scattered Clouds,0,2012-10-17 20:07:00
4:31 PM,78.8,69.8,74,29.86,10.0,Calm,Calm,-,N/A,Rain,Light Rain,0,2012-10-17 20:31:00
4:55 PM,77.2,70.7,80,29.84,10.0,Calm,Calm,-,0.00,,Light Drizzle,0,2012-10-17 20:55:00
5:29 PM,77.0,69.8,78,29.84,10.0,Calm,Calm,-,N/A,,Partly Cloudy,0,2012-10-17 21:29:00
5:55 PM,77.9,71.4,80,29.83,10.0,Calm,Calm,-,0.00,,Partly Cloudy,0,2012-10-17 21:55:00
6:55 PM,77.7,71.2,80,29.83,10.0,Calm,Calm,-,N/A,,Clear,0,2012-10-17 22:55:00
7:33 PM,73.4,66.2,78,29.84,10.0,Calm,Calm,-,N/A,,Light Drizzle,0,2012-10-17 23:33:00
7:38 PM,71.6,66.2,83,29.84,10.0,Calm,Calm,-,N/A,,Clear,0,2012-10-17 23:38:00
7:41 PM,71.6,66.2,83,29.84,10.0,Calm,Calm,-,N/A,,Light Drizzle,0,2012-10-17 23:41:00
7:43 PM,71.6,66.2,83,29.84,10.0,Calm,Calm,-,N/A,,Clear,0,2012-10-17 23:43:00
7:55 PM,70.9,65.7,83,29.85,10.0,Calm,Calm,-,0.00,,Clear,0,2012-10-17 23:55:00
8:55 PM,69.1,66.6,92,29.86,10.0,ENE,3.5,-,N/A,,Clear,60,2012-10-18 00:55:00
9:55 PM,68.5,66.7,94,29.88,10.0,Calm,Calm,-,N/A,,Clear,0,2012-10-18 01:55:00
10:55 PM,67.3,65.5,94,29.89,10.0,Calm,Calm,-,N/A,,Mostly Cloudy,0,2012-10-18 02:55:00
11:55 PM,69.4,69.3,99,29.88,10.0,SE,5.8,-,N/A,,Overcast,130,2012-10-18 03:55:00